Year,Month,Day,Hour,Minute,Value (Times are PST for temperature in C)
2014,08,18,00,00,17.30
2014,08,18,00,01,17.30
2014,08,18,00,02,17.30
2014,08,18,00,03,17.30
2014,08,18,00,04,17.30
2014,08,18,00,05,17.30
2014,08,18,00,06,17.20
2014,08,18,00,07,17.20
2014,08,18,00,08,17.20
2014,08,18,00,09,17.20
2014,08,18,00,10,17.10
2014,08,18,00,11,17.10
2014,08,18,00,12,17.10
2014,08,18,00,13,17.10
2014,08,18,00,14,17.10
2014,08,18,00,15,17.00
2014,08,18,00,16,17.00
2014,08,18,00,17,17.00
2014,08,18,00,18,17.00
2014,08,18,00,19,17.00
2014,08,18,00,20,17.00
2014,08,18,00,21,17.00
2014,08,18,00,22,17.00
2014,08,18,00,23,17.00
2014,08,18,00,24,16.90
2014,08,18,00,25,16.90
2014,08,18,00,26,16.90
2014,08,18,00,27,16.90
2014,08,18,00,28,16.90
2014,08,18,00,29,16.90
2014,08,18,00,30,16.90
2014,08,18,00,31,16.90
2014,08,18,00,32,16.90
2014,08,18,00,33,16.80
2014,08,18,00,34,16.80
2014,08,18,00,35,16.80
2014,08,18,00,36,16.80
2014,08,18,00,37,16.80
2014,08,18,00,38,16.80
2014,08,18,00,39,16.70
2014,08,18,00,40,16.70
2014,08,18,00,41,16.70
2014,08,18,00,42,16.70
2014,08,18,00,43,16.70
2014,08,18,00,44,16.70
2014,08,18,00,45,16.70
2014,08,18,00,46,16.70
2014,08,18,00,47,16.70
2014,08,18,00,48,16.70
2014,08,18,00,49,16.70
2014,08,18,00,50,16.70
2014,08,18,00,51,16.70
2014,08,18,00,52,16.70
2014,08,18,00,53,16.70
2014,08,18,00,54,16.70
2014,08,18,00,55,16.70
2014,08,18,00,56,16.70
2014,08,18,00,57,16.80
2014,08,18,00,58,16.80
2014,08,18,00,59,16.80
2014,08,18,01,00,16.80
2014,08,18,01,01,16.80
2014,08,18,01,02,16.80
2014,08,18,01,03,16.80
2014,08,18,01,04,16.80
2014,08,18,01,05,16.80
2014,08,18,01,06,16.80
2014,08,18,01,07,16.80
2014,08,18,01,08,16.80
2014,08,18,01,09,16.80
2014,08,18,01,10,16.80
2014,08,18,01,11,16.70
2014,08,18,01,12,16.70
2014,08,18,01,13,16.70
2014,08,18,01,14,16.70
2014,08,18,01,15,16.70
2014,08,18,01,16,16.70
2014,08,18,01,17,16.70
2014,08,18,01,18,16.70
2014,08,18,01,19,16.70
2014,08,18,01,20,16.70
2014,08,18,01,21,16.70
2014,08,18,01,22,16.70
2014,08,18,01,23,16.70
2014,08,18,01,24,16.70
2014,08,18,01,25,16.70
2014,08,18,01,26,16.70
2014,08,18,01,27,16.70
2014,08,18,01,28,16.70
2014,08,18,01,29,16.70
2014,08,18,01,30,16.70
2014,08,18,01,31,16.70
2014,08,18,01,32,16.70
2014,08,18,01,33,16.70
2014,08,18,01,34,16.70
2014,08,18,01,35,16.60
2014,08,18,01,36,16.50
2014,08,18,01,37,16.40
2014,08,18,01,38,16.30
2014,08,18,01,39,16.20
2014,08,18,01,40,16.10
2014,08,18,01,41,16.00
2014,08,18,01,42,15.90
2014,08,18,01,43,15.90
2014,08,18,01,44,15.80
2014,08,18,01,45,15.80
2014,08,18,01,46,15.80
2014,08,18,01,47,15.70
2014,08,18,01,48,15.70
2014,08,18,01,49,15.60
2014,08,18,01,50,15.60
2014,08,18,01,51,15.60
2014,08,18,01,52,15.50
2014,08,18,01,53,15.50
2014,08,18,01,54,15.50
2014,08,18,01,55,15.50
2014,08,18,01,56,15.50
2014,08,18,01,57,15.50
2014,08,18,01,58,15.50
2014,08,18,01,59,15.50
2014,08,18,02,00,15.50
2014,08,18,02,01,15.40
2014,08,18,02,02,15.40
2014,08,18,02,03,15.40
2014,08,18,02,04,15.40
2014,08,18,02,05,15.40
2014,08,18,02,06,15.40
2014,08,18,02,07,15.40
2014,08,18,02,08,15.40
2014,08,18,02,09,15.50
2014,08,18,02,10,15.50
2014,08,18,02,11,15.50
2014,08,18,02,12,15.50
2014,08,18,02,13,15.50
2014,08,18,02,14,15.50
2014,08,18,02,15,15.60
2014,08,18,02,16,15.60
2014,08,18,02,17,15.60
2014,08,18,02,18,15.60
2014,08,18,02,19,15.60
2014,08,18,02,20,15.60
2014,08,18,02,21,15.60
2014,08,18,02,22,15.60
2014,08,18,02,23,15.60
2014,08,18,02,24,15.60
2014,08,18,02,25,15.60
2014,08,18,02,26,15.60
2014,08,18,02,27,15.60
2014,08,18,02,28,15.60
2014,08,18,02,29,15.60
2014,08,18,02,30,15.60
2014,08,18,02,31,15.60
2014,08,18,02,32,15.60
2014,08,18,02,33,15.60
2014,08,18,02,34,15.60
2014,08,18,02,35,15.60
2014,08,18,02,36,15.60
2014,08,18,02,37,15.50
2014,08,18,02,38,15.50
2014,08,18,02,39,15.50
2014,08,18,02,40,15.50
2014,08,18,02,41,15.40
2014,08,18,02,42,15.40
2014,08,18,02,43,15.40
2014,08,18,02,44,15.40
2014,08,18,02,45,15.30
2014,08,18,02,46,15.30
2014,08,18,02,47,15.30
2014,08,18,02,48,15.30
2014,08,18,02,49,15.30
2014,08,18,02,50,15.30
2014,08,18,02,51,15.30
2014,08,18,02,52,15.30
2014,08,18,02,53,15.30
2014,08,18,02,54,15.20
2014,08,18,02,55,15.20
2014,08,18,02,56,15.20
2014,08,18,02,57,15.30
2014,08,18,02,58,15.30
2014,08,18,02,59,15.30
2014,08,18,03,00,15.30
2014,08,18,03,01,15.30
2014,08,18,03,02,15.30
2014,08,18,03,03,15.30
2014,08,18,03,04,15.30
2014,08,18,03,05,15.40
2014,08,18,03,06,15.40
2014,08,18,03,07,15.40
2014,08,18,03,08,15.40
2014,08,18,03,09,15.40
2014,08,18,03,10,15.40
2014,08,18,03,11,15.40
2014,08,18,03,12,15.40
2014,08,18,03,13,15.40
2014,08,18,03,14,15.30
2014,08,18,03,15,15.30
2014,08,18,03,16,15.30
2014,08,18,03,17,15.30
2014,08,18,03,18,15.30
2014,08,18,03,19,15.30
2014,08,18,03,20,15.30
2014,08,18,03,21,15.30
2014,08,18,03,22,15.30
2014,08,18,03,23,15.30
2014,08,18,03,24,15.30
2014,08,18,03,25,15.40
2014,08,18,03,26,15.40
2014,08,18,03,27,15.40
2014,08,18,03,28,15.40
2014,08,18,03,29,15.40
2014,08,18,03,30,15.40
2014,08,18,03,31,15.40
2014,08,18,03,32,15.40
2014,08,18,03,33,15.40
2014,08,18,03,34,15.40
2014,08,18,03,35,15.40
2014,08,18,03,36,15.50
2014,08,18,03,37,15.50
2014,08,18,03,38,15.40
2014,08,18,03,39,15.40
2014,08,18,03,40,15.40
2014,08,18,03,41,15.40
2014,08,18,03,42,15.40
2014,08,18,03,43,15.40
2014,08,18,03,44,15.40
2014,08,18,03,45,15.40
2014,08,18,03,46,15.40
2014,08,18,03,47,15.40
2014,08,18,03,48,15.40
2014,08,18,03,49,15.40
2014,08,18,03,50,15.30
2014,08,18,03,51,15.30
2014,08,18,03,52,15.30
2014,08,18,03,53,15.30
2014,08,18,03,54,15.30
2014,08,18,03,55,15.30
2014,08,18,03,56,15.30
2014,08,18,03,57,15.30
2014,08,18,03,58,15.30
2014,08,18,03,59,15.30
2014,08,18,04,00,15.30
2014,08,18,04,01,15.30
2014,08,18,04,02,15.30
2014,08,18,04,03,15.30
2014,08,18,04,04,15.30
2014,08,18,04,05,15.30
2014,08,18,04,06,15.30
2014,08,18,04,07,15.30
2014,08,18,04,08,15.30
2014,08,18,04,09,15.30
2014,08,18,04,10,15.30
2014,08,18,04,11,15.30
2014,08,18,04,12,15.30
2014,08,18,04,13,15.30
2014,08,18,04,14,15.30
2014,08,18,04,15,15.30
2014,08,18,04,16,15.30
2014,08,18,04,17,15.30
2014,08,18,04,18,15.20
2014,08,18,04,19,15.20
2014,08,18,04,20,15.20
2014,08,18,04,21,15.20
2014,08,18,04,22,15.20
2014,08,18,04,23,15.20
2014,08,18,04,24,15.20
2014,08,18,04,25,15.20
2014,08,18,04,26,15.10
2014,08,18,04,27,15.10
2014,08,18,04,28,15.10
2014,08,18,04,29,15.10
2014,08,18,04,30,15.10
2014,08,18,04,31,15.10
2014,08,18,04,32,15.10
2014,08,18,04,33,15.10
2014,08,18,04,34,15.20
2014,08,18,04,35,15.20
2014,08,18,04,36,15.20
2014,08,18,04,37,15.10
2014,08,18,04,38,15.10
2014,08,18,04,39,15.10
2014,08,18,04,40,15.10
2014,08,18,04,41,15.10
2014,08,18,04,42,15.10
2014,08,18,04,43,15.10
2014,08,18,04,44,15.10
2014,08,18,04,45,15.10
2014,08,18,04,46,15.10
2014,08,18,04,47,15.10
2014,08,18,04,48,15.10
2014,08,18,04,49,15.10
2014,08,18,04,50,15.10
2014,08,18,04,51,15.10
2014,08,18,04,52,15.10
2014,08,18,04,53,15.10
2014,08,18,04,54,15.10
2014,08,18,04,55,15.10
2014,08,18,04,56,15.10
2014,08,18,04,57,15.10
2014,08,18,04,58,15.10
2014,08,18,04,59,15.10
2014,08,18,05,00,15.10
2014,08,18,05,01,15.10
2014,08,18,05,02,15.10
2014,08,18,05,03,15.00
2014,08,18,05,04,15.00
2014,08,18,05,05,15.00
2014,08,18,05,06,15.00
2014,08,18,05,07,15.00
2014,08,18,05,08,15.00
2014,08,18,05,09,15.00
2014,08,18,05,10,15.00
2014,08,18,05,11,15.00
2014,08,18,05,12,15.00
2014,08,18,05,13,15.00
2014,08,18,05,14,14.90
2014,08,18,05,15,14.90
2014,08,18,05,16,14.90
2014,08,18,05,17,14.90
2014,08,18,05,18,14.90
2014,08,18,05,19,14.90
2014,08,18,05,20,14.90
2014,08,18,05,21,15.00
2014,08,18,05,22,15.00
2014,08,18,05,23,14.90
2014,08,18,05,24,14.90
2014,08,18,05,25,14.90
2014,08,18,05,26,14.90
2014,08,18,05,27,14.90
2014,08,18,05,28,14.90
2014,08,18,05,29,15.00
2014,08,18,05,30,15.00
2014,08,18,05,31,14.90
2014,08,18,05,32,14.90
2014,08,18,05,33,14.90
2014,08,18,05,34,14.90
2014,08,18,05,35,14.90
2014,08,18,05,36,14.90
2014,08,18,05,37,14.90
2014,08,18,05,38,14.80
2014,08,18,05,39,14.80
2014,08,18,05,40,14.80
2014,08,18,05,41,14.80
2014,08,18,05,42,14.80
2014,08,18,05,43,14.80
2014,08,18,05,44,14.80
2014,08,18,05,45,14.80
2014,08,18,05,46,14.80
2014,08,18,05,47,14.80
2014,08,18,05,48,14.80
2014,08,18,05,49,14.80
2014,08,18,05,50,14.80
2014,08,18,05,51,14.80
2014,08,18,05,52,14.80
2014,08,18,05,53,14.80
2014,08,18,05,54,14.80
2014,08,18,05,55,14.80
2014,08,18,05,56,14.80
2014,08,18,05,57,14.80
2014,08,18,05,58,14.80
2014,08,18,05,59,14.80
2014,08,18,06,00,14.80
2014,08,18,06,01,14.80
2014,08,18,06,02,14.80
2014,08,18,06,03,14.80
2014,08,18,06,04,14.80
2014,08,18,06,05,14.80
2014,08,18,06,06,14.80
2014,08,18,06,07,14.80
2014,08,18,06,08,14.80
2014,08,18,06,09,14.80
2014,08,18,06,10,14.80
2014,08,18,06,11,14.80
2014,08,18,06,12,14.80
2014,08,18,06,13,14.80
2014,08,18,06,14,14.80
2014,08,18,06,15,14.80
2014,08,18,06,16,14.80
2014,08,18,06,17,14.80
2014,08,18,06,18,14.80
2014,08,18,06,19,14.80
2014,08,18,06,20,14.70
2014,08,18,06,21,14.70
2014,08,18,06,22,14.70
2014,08,18,06,23,14.70
2014,08,18,06,24,14.70
2014,08,18,06,25,14.70
2014,08,18,06,26,14.70
2014,08,18,06,27,14.70
2014,08,18,06,28,14.70
2014,08,18,06,29,14.70
2014,08,18,06,30,14.70
2014,08,18,06,31,14.70
2014,08,18,06,32,14.70
2014,08,18,06,33,14.70
2014,08,18,06,34,14.70
2014,08,18,06,35,14.70
2014,08,18,06,36,14.70
2014,08,18,06,37,14.80
2014,08,18,06,38,14.80
2014,08,18,06,39,14.80
2014,08,18,06,40,14.80
2014,08,18,06,41,14.80
2014,08,18,06,42,14.80
2014,08,18,06,43,14.80
2014,08,18,06,44,14.80
2014,08,18,06,45,14.80
2014,08,18,06,46,14.80
2014,08,18,06,47,14.80
2014,08,18,06,48,14.80
2014,08,18,06,49,14.80
2014,08,18,06,50,14.80
2014,08,18,06,51,14.90
2014,08,18,06,52,14.90
2014,08,18,06,53,14.90
2014,08,18,06,54,15.00
2014,08,18,06,55,15.00
2014,08,18,06,56,15.10
2014,08,18,06,57,15.10
2014,08,18,06,58,15.20
2014,08,18,06,59,15.20
2014,08,18,07,00,15.20
2014,08,18,07,01,15.30
2014,08,18,07,02,15.30
2014,08,18,07,03,15.30
2014,08,18,07,04,15.40
2014,08,18,07,05,15.40
2014,08,18,07,06,15.40
2014,08,18,07,07,15.50
2014,08,18,07,08,15.50
2014,08,18,07,09,15.50
2014,08,18,07,10,15.60
2014,08,18,07,11,15.60
2014,08,18,07,12,15.70
2014,08,18,07,13,15.80
2014,08,18,07,14,15.80
2014,08,18,07,15,15.90
2014,08,18,07,16,16.10
2014,08,18,07,17,16.10
2014,08,18,07,18,16.20
2014,08,18,07,19,16.30
2014,08,18,07,20,16.40
2014,08,18,07,21,16.40
2014,08,18,07,22,16.50
2014,08,18,07,23,16.60
2014,08,18,07,24,16.70
2014,08,18,07,25,16.70
2014,08,18,07,26,16.80
2014,08,18,07,27,16.80
2014,08,18,07,28,16.90
2014,08,18,07,29,16.90
2014,08,18,07,30,17.00
2014,08,18,07,31,17.10
2014,08,18,07,32,17.20
2014,08,18,07,33,17.30
2014,08,18,07,34,17.30
2014,08,18,07,35,17.40
2014,08,18,07,36,17.40
2014,08,18,07,37,17.50
2014,08,18,07,38,17.60
2014,08,18,07,39,17.60
2014,08,18,07,40,17.70
2014,08,18,07,41,17.70
2014,08,18,07,42,17.80
2014,08,18,07,43,17.90
2014,08,18,07,44,17.90
2014,08,18,07,45,18.00
2014,08,18,07,46,18.10
2014,08,18,07,47,18.10
2014,08,18,07,48,18.10
2014,08,18,07,49,18.10
2014,08,18,07,50,18.10
2014,08,18,07,51,18.10
2014,08,18,07,52,18.20
2014,08,18,07,53,18.20
2014,08,18,07,54,18.20
2014,08,18,07,55,18.30
2014,08,18,07,56,18.30
2014,08,18,07,57,18.30
2014,08,18,07,58,18.30
2014,08,18,07,59,18.40
2014,08,18,08,00,18.50
2014,08,18,08,01,18.50
2014,08,18,08,02,18.60
2014,08,18,08,03,18.70
2014,08,18,08,04,18.80
2014,08,18,08,05,18.80
2014,08,18,08,06,18.80
2014,08,18,08,07,18.90
2014,08,18,08,08,19.00
2014,08,18,08,09,19.10
2014,08,18,08,10,19.10
2014,08,18,08,11,19.20
2014,08,18,08,12,19.30
2014,08,18,08,13,19.30
2014,08,18,08,14,19.30
2014,08,18,08,15,19.30
2014,08,18,08,16,19.20
2014,08,18,08,17,19.20
2014,08,18,08,18,19.30
2014,08,18,08,19,19.40
2014,08,18,08,20,19.50
2014,08,18,08,21,19.60
2014,08,18,08,22,19.60
2014,08,18,08,23,19.70
2014,08,18,08,24,19.70
2014,08,18,08,25,19.70
2014,08,18,08,26,19.80
2014,08,18,08,27,19.90
2014,08,18,08,28,19.90
2014,08,18,08,29,19.90
2014,08,18,08,30,20.00
2014,08,18,08,31,20.10
2014,08,18,08,32,20.10
2014,08,18,08,33,20.20
2014,08,18,08,34,20.20
2014,08,18,08,35,20.20
2014,08,18,08,36,20.20
2014,08,18,08,37,20.20
2014,08,18,08,38,20.20
2014,08,18,08,39,20.10
2014,08,18,08,40,20.10
2014,08,18,08,41,20.10
2014,08,18,08,42,20.10
2014,08,18,08,43,20.10
2014,08,18,08,44,20.10
2014,08,18,08,45,20.10
2014,08,18,08,46,20.10
2014,08,18,08,47,20.10
2014,08,18,08,48,20.10
2014,08,18,08,49,20.10
2014,08,18,08,50,20.10
2014,08,18,08,51,20.10
2014,08,18,08,52,20.10
2014,08,18,08,53,20.20
2014,08,18,08,54,20.20
2014,08,18,08,55,20.20
2014,08,18,08,56,20.20
2014,08,18,08,57,20.20
2014,08,18,08,58,20.30
2014,08,18,08,59,20.30
2014,08,18,09,00,20.20
2014,08,18,09,01,20.20
2014,08,18,09,02,20.20
2014,08,18,09,03,20.30
2014,08,18,09,04,20.30
2014,08,18,09,05,20.30
2014,08,18,09,06,20.30
2014,08,18,09,07,20.30
2014,08,18,09,08,20.40
2014,08,18,09,09,20.40
2014,08,18,09,10,20.50
2014,08,18,09,11,20.50
2014,08,18,09,12,20.50
2014,08,18,09,13,20.50
2014,08,18,09,14,20.50
2014,08,18,09,15,20.50
2014,08,18,09,16,20.60
2014,08,18,09,17,20.60
2014,08,18,09,18,20.60
2014,08,18,09,19,20.60
2014,08,18,09,20,20.60
2014,08,18,09,21,20.50
2014,08,18,09,22,20.50
2014,08,18,09,23,20.50
2014,08,18,09,24,20.50
2014,08,18,09,25,20.50
2014,08,18,09,26,20.50
2014,08,18,09,27,20.50
2014,08,18,09,28,20.50
2014,08,18,09,29,20.50
2014,08,18,09,30,20.50
2014,08,18,09,31,20.60
2014,08,18,09,32,20.60
2014,08,18,09,33,20.60
2014,08,18,09,34,20.70
2014,08,18,09,35,20.70
2014,08,18,09,36,20.70
2014,08,18,09,37,20.70
2014,08,18,09,38,20.70
2014,08,18,09,39,20.70
2014,08,18,09,40,20.70
2014,08,18,09,41,20.70
2014,08,18,09,42,20.80
2014,08,18,09,43,20.80
2014,08,18,09,44,20.90
2014,08,18,09,45,20.90
2014,08,18,09,46,20.90
2014,08,18,09,47,20.90
2014,08,18,09,48,21.00
2014,08,18,09,49,21.00
2014,08,18,09,50,21.10
2014,08,18,09,51,21.20
2014,08,18,09,52,21.20
2014,08,18,09,53,21.20
2014,08,18,09,54,21.30
2014,08,18,09,55,21.30
2014,08,18,09,56,21.20
2014,08,18,09,57,21.20
2014,08,18,09,58,21.20
2014,08,18,09,59,21.30
2014,08,18,10,00,21.20
2014,08,18,10,01,21.20
2014,08,18,10,02,21.10
2014,08,18,10,03,21.10
2014,08,18,10,04,21.10
2014,08,18,10,05,21.10
2014,08,18,10,06,21.10
2014,08,18,10,07,21.10
2014,08,18,10,08,21.20
2014,08,18,10,09,21.20
2014,08,18,10,10,21.20
2014,08,18,10,11,21.20
2014,08,18,10,12,21.30
2014,08,18,10,13,21.20
2014,08,18,10,14,21.20
2014,08,18,10,15,21.20
2014,08,18,10,16,21.30
2014,08,18,10,17,21.30
2014,08,18,10,18,21.40
2014,08,18,10,19,21.50
2014,08,18,10,20,21.60
2014,08,18,10,21,21.80
2014,08,18,10,22,21.90
2014,08,18,10,23,22.00
2014,08,18,10,24,22.00
2014,08,18,10,25,21.90
2014,08,18,10,26,21.80
2014,08,18,10,27,21.80
2014,08,18,10,28,21.80
2014,08,18,10,29,21.90
2014,08,18,10,30,22.00
2014,08,18,10,31,22.10
2014,08,18,10,32,22.10
2014,08,18,10,33,22.20
2014,08,18,10,34,22.20
2014,08,18,10,35,22.30
2014,08,18,10,36,22.20
2014,08,18,10,37,22.30
2014,08,18,10,38,22.30
2014,08,18,10,39,22.30
2014,08,18,10,40,22.30
2014,08,18,10,41,22.20
2014,08,18,10,42,22.10
2014,08,18,10,43,22.10
2014,08,18,10,44,22.10
2014,08,18,10,45,22.00
2014,08,18,10,46,22.00
2014,08,18,10,47,21.90
2014,08,18,10,48,21.90
2014,08,18,10,49,21.80
2014,08,18,10,50,21.80
2014,08,18,10,51,21.80
2014,08,18,10,52,21.80
2014,08,18,10,53,21.80
2014,08,18,10,54,21.80
2014,08,18,10,55,21.90
2014,08,18,10,56,22.00
2014,08,18,10,57,22.00
2014,08,18,10,58,21.90
2014,08,18,10,59,21.80
2014,08,18,11,00,21.70
2014,08,18,11,01,21.70
2014,08,18,11,02,21.70
2014,08,18,11,03,21.70
2014,08,18,11,04,21.70
2014,08,18,11,05,21.90
2014,08,18,11,06,21.90
2014,08,18,11,07,21.90
2014,08,18,11,08,21.90
2014,08,18,11,09,21.80
2014,08,18,11,10,21.80
2014,08,18,11,11,21.70
2014,08,18,11,12,21.60
2014,08,18,11,13,21.60
2014,08,18,11,14,21.70
2014,08,18,11,15,21.70
2014,08,18,11,16,21.70
2014,08,18,11,17,21.90
2014,08,18,11,18,22.00
2014,08,18,11,19,22.10
2014,08,18,11,20,22.20
2014,08,18,11,21,22.30
2014,08,18,11,22,22.40
2014,08,18,11,23,22.40
2014,08,18,11,24,22.40
2014,08,18,11,25,22.40
2014,08,18,11,26,22.40
2014,08,18,11,27,22.60
2014,08,18,11,28,22.60
2014,08,18,11,29,22.70
2014,08,18,11,30,22.80
2014,08,18,11,31,22.70
2014,08,18,11,32,22.70
2014,08,18,11,33,22.70
2014,08,18,11,34,22.70
2014,08,18,11,35,22.80
2014,08,18,11,36,22.90
2014,08,18,11,37,22.90
2014,08,18,11,38,22.80
2014,08,18,11,39,22.70
2014,08,18,11,40,22.70
2014,08,18,11,41,22.60
2014,08,18,11,42,22.50
2014,08,18,11,43,22.40
2014,08,18,11,44,22.40
2014,08,18,11,45,22.40
2014,08,18,11,46,22.30
2014,08,18,11,47,22.20
2014,08,18,11,48,22.00
2014,08,18,11,49,22.00
2014,08,18,11,50,22.10
2014,08,18,11,51,22.10
2014,08,18,11,52,22.10
2014,08,18,11,53,22.10
2014,08,18,11,54,22.10
2014,08,18,11,55,22.20
2014,08,18,11,56,22.20
2014,08,18,11,57,22.30
2014,08,18,11,58,22.40
2014,08,18,11,59,22.50
2014,08,18,12,00,22.60
2014,08,18,12,01,22.60
2014,08,18,12,02,22.60
2014,08,18,12,03,22.40
2014,08,18,12,04,22.40
2014,08,18,12,05,22.40
2014,08,18,12,06,22.40
2014,08,18,12,07,22.40
2014,08,18,12,08,22.50
2014,08,18,12,09,22.50
2014,08,18,12,10,22.40
2014,08,18,12,11,22.40
2014,08,18,12,12,22.50
2014,08,18,12,13,22.50
2014,08,18,12,14,22.60
2014,08,18,12,15,22.70
2014,08,18,12,16,22.70
2014,08,18,12,17,22.90
2014,08,18,12,18,22.90
2014,08,18,12,19,22.90
2014,08,18,12,20,23.00
2014,08,18,12,21,23.10
2014,08,18,12,22,23.20
2014,08,18,12,23,23.20
2014,08,18,12,24,23.10
2014,08,18,12,25,23.00
2014,08,18,12,26,23.00
2014,08,18,12,27,23.10
2014,08,18,12,28,23.10
2014,08,18,12,29,23.10
2014,08,18,12,30,23.10
2014,08,18,12,31,23.10
2014,08,18,12,32,23.10
2014,08,18,12,33,23.10
2014,08,18,12,34,23.20
2014,08,18,12,35,23.30
2014,08,18,12,36,23.40
2014,08,18,12,37,23.60
2014,08,18,12,38,23.70
2014,08,18,12,39,23.80
2014,08,18,12,40,23.80
2014,08,18,12,41,23.80
2014,08,18,12,42,23.80
2014,08,18,12,43,23.70
2014,08,18,12,44,23.70
2014,08,18,12,45,23.70
2014,08,18,12,46,23.70
2014,08,18,12,47,23.80
2014,08,18,12,48,24.00
2014,08,18,12,49,24.10
2014,08,18,12,50,24.10
2014,08,18,12,51,24.10
2014,08,18,12,52,24.10
2014,08,18,12,53,24.10
2014,08,18,12,54,24.10
2014,08,18,12,55,24.10
2014,08,18,12,56,24.00
2014,08,18,12,57,23.90
2014,08,18,12,58,23.90
2014,08,18,12,59,23.90
2014,08,18,13,00,23.90
2014,08,18,13,01,23.90
2014,08,18,13,02,23.80
2014,08,18,13,03,23.80
2014,08,18,13,04,23.90
2014,08,18,13,05,24.10
2014,08,18,13,06,24.10
2014,08,18,13,07,24.20
2014,08,18,13,08,24.30
2014,08,18,13,09,24.30
2014,08,18,13,10,24.10
2014,08,18,13,11,24.00
2014,08,18,13,12,23.90
2014,08,18,13,13,23.80
2014,08,18,13,14,23.70
2014,08,18,13,15,23.80
2014,08,18,13,16,23.80
2014,08,18,13,17,23.80
2014,08,18,13,18,23.80
2014,08,18,13,19,23.80
2014,08,18,13,20,23.70
2014,08,18,13,21,23.60
2014,08,18,13,22,23.50
2014,08,18,13,23,23.40
2014,08,18,13,24,23.40
2014,08,18,13,25,23.50
2014,08,18,13,26,23.60
2014,08,18,13,27,23.80
2014,08,18,13,28,23.90
2014,08,18,13,29,24.00
2014,08,18,13,30,23.90
2014,08,18,13,31,23.90
2014,08,18,13,32,23.70
2014,08,18,13,33,23.70
2014,08,18,13,34,23.70
2014,08,18,13,35,23.70
2014,08,18,13,36,23.80
2014,08,18,13,37,23.70
2014,08,18,13,38,23.80
2014,08,18,13,39,23.80
2014,08,18,13,40,23.80
2014,08,18,13,41,23.90
2014,08,18,13,42,23.90
2014,08,18,13,43,24.10
2014,08,18,13,44,24.10
2014,08,18,13,45,24.10
2014,08,18,13,46,24.10
2014,08,18,13,47,24.10
2014,08,18,13,48,24.10
2014,08,18,13,49,24.10
2014,08,18,13,50,24.00
2014,08,18,13,51,23.90
2014,08,18,13,52,23.90
2014,08,18,13,53,24.00
2014,08,18,13,54,24.10
2014,08,18,13,55,24.10
2014,08,18,13,56,24.00
2014,08,18,13,57,23.90
2014,08,18,13,58,23.80
2014,08,18,13,59,23.80
2014,08,18,14,00,23.80
2014,08,18,14,01,23.90
2014,08,18,14,02,24.00
2014,08,18,14,03,24.10
2014,08,18,14,04,24.10
2014,08,18,14,05,24.10
2014,08,18,14,06,24.20
2014,08,18,14,07,24.20
2014,08,18,14,08,24.20
2014,08,18,14,09,24.10
2014,08,18,14,10,24.10
2014,08,18,14,11,24.00
2014,08,18,14,12,23.90
2014,08,18,14,13,23.90
2014,08,18,14,14,23.90
2014,08,18,14,15,23.90
2014,08,18,14,16,23.80
2014,08,18,14,17,23.90
2014,08,18,14,18,23.80
2014,08,18,14,19,23.70
2014,08,18,14,20,23.60
2014,08,18,14,21,23.50
2014,08,18,14,22,23.40
2014,08,18,14,23,23.30
2014,08,18,14,24,23.30
2014,08,18,14,25,23.30
2014,08,18,14,26,23.30
2014,08,18,14,27,23.30
2014,08,18,14,28,23.30
2014,08,18,14,29,23.30
2014,08,18,14,30,23.30
2014,08,18,14,31,23.20
2014,08,18,14,32,23.10
2014,08,18,14,33,23.00
2014,08,18,14,34,22.90
2014,08,18,14,35,23.00
2014,08,18,14,36,23.10
2014,08,18,14,37,23.20
2014,08,18,14,38,23.20
2014,08,18,14,39,23.10
2014,08,18,14,40,23.10
2014,08,18,14,41,23.10
2014,08,18,14,42,23.20
2014,08,18,14,43,23.30
2014,08,18,14,44,23.30
2014,08,18,14,45,23.30
2014,08,18,14,46,23.30
2014,08,18,14,47,23.40
2014,08,18,14,48,23.40
2014,08,18,14,49,23.50
2014,08,18,14,50,23.60
2014,08,18,14,51,23.60
2014,08,18,14,52,23.70
2014,08,18,14,53,23.70
2014,08,18,14,54,23.70
2014,08,18,14,55,23.80
2014,08,18,14,56,23.80
2014,08,18,14,57,23.80
2014,08,18,14,58,23.80
2014,08,18,14,59,23.80
2014,08,18,15,00,23.90
2014,08,18,15,01,24.00
2014,08,18,15,02,24.10
2014,08,18,15,03,24.00
2014,08,18,15,04,23.90
2014,08,18,15,05,23.70
2014,08,18,15,06,23.70
2014,08,18,15,07,23.60
2014,08,18,15,08,23.50
2014,08,18,15,09,23.40
2014,08,18,15,10,23.30
2014,08,18,15,11,23.30
2014,08,18,15,12,23.30
2014,08,18,15,13,23.30
2014,08,18,15,14,23.30
2014,08,18,15,15,23.30
2014,08,18,15,16,23.30
2014,08,18,15,17,23.30
2014,08,18,15,18,23.30
2014,08,18,15,19,23.30
2014,08,18,15,20,23.30
2014,08,18,15,21,23.30
2014,08,18,15,22,23.30
2014,08,18,15,23,23.40
2014,08,18,15,24,23.50
2014,08,18,15,25,23.60
2014,08,18,15,26,23.60
2014,08,18,15,27,23.60
2014,08,18,15,28,23.60
2014,08,18,15,29,23.60
2014,08,18,15,30,23.60
2014,08,18,15,31,23.60
2014,08,18,15,32,23.70
2014,08,18,15,33,23.70
2014,08,18,15,34,23.70
2014,08,18,15,35,23.80
2014,08,18,15,36,23.80
2014,08,18,15,37,23.80
2014,08,18,15,38,23.80
2014,08,18,15,39,23.80
2014,08,18,15,40,23.80
2014,08,18,15,41,23.80
2014,08,18,15,42,23.80
2014,08,18,15,43,23.90
2014,08,18,15,44,23.90
2014,08,18,15,45,23.90
2014,08,18,15,46,23.90
2014,08,18,15,47,23.80
2014,08,18,15,48,23.80
2014,08,18,15,49,23.80
2014,08,18,15,50,23.80
2014,08,18,15,51,23.80
2014,08,18,15,52,23.80
2014,08,18,15,53,23.80
2014,08,18,15,54,23.80
2014,08,18,15,55,23.80
2014,08,18,15,56,23.80
2014,08,18,15,57,23.80
2014,08,18,15,58,23.90
2014,08,18,15,59,23.90
2014,08,18,16,00,23.90
2014,08,18,16,01,23.90
2014,08,18,16,02,23.90
2014,08,18,16,03,23.90
2014,08,18,16,04,23.90
2014,08,18,16,05,23.90
2014,08,18,16,06,23.80
2014,08,18,16,07,23.70
2014,08,18,16,08,23.70
2014,08,18,16,09,23.70
2014,08,18,16,10,23.70
2014,08,18,16,11,23.70
2014,08,18,16,12,23.70
2014,08,18,16,13,23.70
2014,08,18,16,14,23.70
2014,08,18,16,15,23.70
2014,08,18,16,16,23.80
2014,08,18,16,17,23.80
2014,08,18,16,18,23.80
2014,08,18,16,19,23.90
2014,08,18,16,20,24.00
2014,08,18,16,21,24.10
2014,08,18,16,22,24.10
2014,08,18,16,23,24.20
2014,08,18,16,24,24.20
2014,08,18,16,25,24.20
2014,08,18,16,26,24.20
2014,08,18,16,27,24.30
2014,08,18,16,28,24.30
2014,08,18,16,29,24.30
2014,08,18,16,30,24.30
2014,08,18,16,31,24.20
2014,08,18,16,32,24.20
2014,08,18,16,33,24.20
2014,08,18,16,34,24.10
2014,08,18,16,35,24.10
2014,08,18,16,36,24.10
2014,08,18,16,37,24.10
2014,08,18,16,38,24.10
2014,08,18,16,39,24.10
2014,08,18,16,40,24.10
2014,08,18,16,41,24.10
2014,08,18,16,42,24.10
2014,08,18,16,43,24.10
2014,08,18,16,44,24.10
2014,08,18,16,45,24.10
2014,08,18,16,46,24.10
2014,08,18,16,47,24.20
2014,08,18,16,48,24.20
2014,08,18,16,49,24.20
2014,08,18,16,50,24.30
2014,08,18,16,51,24.30
2014,08,18,16,52,24.30
2014,08,18,16,53,24.30
2014,08,18,16,54,24.20
2014,08,18,16,55,24.10
2014,08,18,16,56,24.10
2014,08,18,16,57,24.10
2014,08,18,16,58,24.00
2014,08,18,16,59,23.90
2014,08,18,17,00,23.90
2014,08,18,17,01,23.90
2014,08,18,17,02,23.80
2014,08,18,17,03,23.80
2014,08,18,17,04,23.80
2014,08,18,17,05,23.80
2014,08,18,17,06,23.80
2014,08,18,17,07,23.80
2014,08,18,17,08,23.70
2014,08,18,17,09,23.70
2014,08,18,17,10,23.70
2014,08,18,17,11,23.80
2014,08,18,17,12,23.70
2014,08,18,17,13,23.70
2014,08,18,17,14,23.70
2014,08,18,17,15,23.70
2014,08,18,17,16,23.70
2014,08,18,17,17,23.70
2014,08,18,17,18,23.70
2014,08,18,17,19,23.60